Location: Łódź
(51.7951°N, 19.4477°E)
Time: 11:48:50
(UTC+01:00)

ISS - Pass Details

Date: 31 January 2019
Orbit: 403 x 411 km, 51.6° (Epoch: 18 February)

Event Time Altitude Azimuth Distance (km) Brightness Sun altitude
Rises 19:47:33 0° 282° (WNW) 2,341 1.2 -30.7°
Reaches altitude 10° 19:49:40 10° 278° (W) 1,480 -0.1 -31.0°
Enters shadow 19:49:58 12° 277° (W) 1,359 -0.3 -31.1°
